Wind_Speed
13 14 12 9 8 7 7 7 6 6 7 5 4 5 7 9 10 10 10 11 12 13 14 14 15 16 17 17 16 15 15 14 13 13 13 12 11 10 10 10 10 9 9 8
15 15 12 12 11 10 9 8 8 8 7 5 5 6 7 10 11 11 10 10 11 12 13 13 14 15 16 16 16 15 14 14 13 13 13 12 11 10 10 10 10 9 9 8
17 15 15 15 13 12 11 10 11 10 8 5 6 7 9 9 10 11 11 10 11 11 12 13 13 14 15 15 16 15 14 13 13 13 12 12 11 11 10 10 9 9 9 9
19 18 18 17 15 14 13 12 12 11 10 7 7 10 11 11 10 10 11 10 10 11 11 12 13 13 13 14 14 15 15 14 13 13 12 11 11 10 10 10 9 9 9 8
20 20 20 19 17 16 15 13 13 11 11 10 9 11 12 13 12 11 11 11 10 10 11 12 11 12 13 14 14 14 14 13 13 12 12 12 11 11 10 9 9 9 9 9
23 22 21 20 20 19 16 14 12 12 12 13 12 12 13 14 13 12 12 11 11 10 10 12 11 11 12 13 13 13 13 13 12 12 12 12 12 11 10 9 9 9 9 9
24 23 22 21 20 19 17 14 13 13 14 14 12 13 16 17 15 14 13 12 11 11 11 11 12 11 11 12 12 12 12 12 12 12 12 11 12 12 10 10 9 9 9 9
23 23 22 22 20 19 18 17 16 14 12 12 12 14 16 17 16 16 14 13 12 12 11 11 12 11 11 12 12 12 12 12 12 12 13 12 12 12 11 11 10 9 9 9
23 23 24 24 22 20 20 20 17 16 15 14 13 15 17 18 17 16 15 15 15 14 13 12 11 12 12 12 12 13 12 12 12 12 13 13 12 12 11 11 10 10 9 8
26 25 24 24 23 23 22 20 19 19 18 17 15 16 20 20 19 17 17 17 16 16 14 13 12 13 14 13 13 13 12 12 13 13 13 13 12 12 11 11 11 10 10 9
27 27 25 25 26 23 23 22 21 21 21 18 16 17 18 21 21 19 18 18 17 17 16 15 14 15 15 15 14 14 13 13 13 13 13 13 13 12 12 12 11 11 11 10
29 27 26 25 25 24 23 24 23 23 22 20 18 17 19 21 22 21 20 20 19 18 17 17 17 17 16 16 16 15 15 15 14 14 14 14 13 13 13 12 12 12 12 11
32 30 28 25 25 25 26 26 25 24 23 22 20 20 21 22 20 21 22 22 21 20 20 19 17 17 17 17 17 16 16 15 15 15 14 14 13 13 13 13 13 13 13 12
33 33 31 28 27 26 26 25 25 25 25 24 23 22 23 24 24 25 25 23 23 22 21 21 19 18 18 18 18 17 17 16 16 15 15 14 13 14 14 14 13 13 13 13
36 35 34 32 30 28 27 26 27 27 27 27 25 24 24 26 28 28 27 26 25 24 22 21 21 20 19 19 19 18 18 17 17 17 16 16 15 15 15 14 14 14 14 14
38 37 36 34 32 30 29 28 28 28 28 28 27 26 25 28 30 30 28 28 26 25 24 22 21 21 20 20 20 19 19 18 18 18 18 17 17 17 16 15 15 15 15 15
39 38 38 37 33 33 33 31 30 29 28 28 29 28 27 30 32 31 29 28 28 27 26 24 23 22 22 21 20 20 19 19 19 19 19 19 19 18 18 17 17 17 16 17
38 38 38 37 34 36 35 31 31 29 28 28 29 29 29 30 31 31 32 30 29 28 26 26 25 25 24 22 22 21 21 21 21 21 20 20 20 19 18 18 18 18 19 19
38 38 37 36 35 36 34 32 32 32 31 30 30 30 30 29 29 31 31 31 30 29 27 26 26 26 25 24 23 22 22 23 23 22 22 22 21 20 20 20 20 20 21 20
38 38 37 36 36 36 34 33 33 34 35 33 33 33 32 31 31 30 31 31 30 29 28 28 28 27 25 25 25 24 24 23 23 23 23 23 22 22 22 22 22 22 22 21
37 37 38 38 37 36 33 33 34 35 36 36 35 35 35 34 33 32 32 32 30 30 30 30 29 28 27 27 27 26 25 25 25 24 24 24 24 24 24 24 24 23 23 23
35 36 37 37 37 37 35 34 35 36 36 37 37 36 37 35 34 33 33 33 31 30 30 30 29 29 28 28 27 27 26 26 26 26 25 25 25 25 25 25 24 24 25 24
35 36 36 37 38 36 35 37 37 38 38 37 36 36 36 36 36 35 35 33 32 30 30 30 30 30 29 29 28 28 27 27 27 27 27 26 26 27 26 26 26 25 25 25
36 36 37 38 39 38 38 38 39 39 39 38 37 37 37 37 36 36 36 35 33 31 30 31 31 31 31 30 29 28 28 28 28 28 28 28 28 29 29 28 28 27 27 27
35 36 36 37 38 39 39 39 39 39 38 37 36 36 37 36 36 36 37 37 35 33 32 32 32 31 31 30 30 29 29 29 29 29 29 29 29 30 30 29 29 29 29 29
35 36 36 37 38 40 40 40 41 40 39 38 37 36 36 35 35 35 36 35 34 33 33 33 33 32 31 31 31 31 30 30 30 29 29 29 30 30 30 30 30 30 30 30
Wind_Direction
208 213 211 207 212 226 227 219 242 262 284 296 300 311 323 331 343 355 6 10 15 17 18 21 21 22 24 26 27 27 27 27 28 28 31 33 34 34 33 31 33 34 32 30
215 219 211 207 211 221 220 219 230 251 275 292 295 296 308 319 328 340 345 355 1 6 9 12 14 15 18 22 24 24 25 26 27 27 28 30 31 29 28 26 30 31 29 25
220 218 218 215 217 223 219 223 230 234 250 256 273 278 282 303 315 324 331 343 352 355 2 4 7 9 12 16 19 20 20 21 21 21 22 24 24 22 21 22 22 21 20 19
221 218 220 220 222 224 227 225 234 233 237 241 250 269 279 287 298 311 318 325 339 342 351 356 358 2 5 11 13 15 15 16 16 15 16 16 16 17 17 18 18 16 15 14
221 222 223 222 221 224 225 228 233 235 241 240 243 262 274 283 290 295 302 310 319 331 338 344 347 353 356 360 4 5 7 7 9 9 8 7 10 10 11 11 11 9 7 9
223 226 227 226 225 226 226 230 236 239 246 250 247 253 264 266 273 285 294 301 309 317 324 329 335 341 346 351 355 357 358 360 2 1 1 1 3 3 4 5 6 4 0 359
225 227 231 230 226 226 225 229 236 242 247 254 253 255 258 263 270 273 285 287 299 309 315 319 324 330 337 343 346 347 351 355 355 354 354 358 359 359 357 356 355 356 356 354
227 233 235 232 230 227 226 227 231 238 250 257 255 251 257 265 271 273 276 282 288 295 303 311 315 320 325 332 336 339 344 345 346 348 350 355 356 357 357 354 350 351 351 351
225 231 234 235 231 228 227 229 232 241 246 251 256 261 263 266 264 270 275 279 283 288 291 294 300 310 316 322 326 328 332 334 335 338 342 345 347 347 349 350 347 346 347 348
223 226 230 236 233 229 228 230 229 232 237 244 247 252 260 265 266 266 271 277 283 288 290 291 293 299 306 313 317 319 321 322 325 330 331 333 336 337 339 343 346 342 341 341
222 227 229 233 233 230 232 229 230 232 231 239 251 255 258 264 267 267 271 274 278 285 289 288 290 292 297 303 306 309 312 315 318 322 325 325 327 329 332 335 338 338 335 333
222 224 228 232 237 233 232 232 230 233 234 233 241 253 257 265 270 270 269 271 276 280 282 285 287 289 293 296 298 299 302 305 308 311 315 318 320 323 325 325 325 326 329 328
223 222 224 228 234 236 234 233 231 233 239 238 239 248 256 263 266 265 268 270 274 278 280 282 285 287 289 292 293 294 294 296 299 303 305 308 311 315 316 316 317 319 321 323
224 225 224 225 227 235 239 237 234 233 237 241 240 245 254 260 261 263 267 272 275 276 277 280 281 283 286 289 290 291 291 291 293 297 300 303 305 310 311 310 311 311 314 316
224 226 226 225 225 228 237 240 237 236 238 241 244 244 248 255 258 263 268 272 274 277 276 276 279 281 284 287 289 289 288 289 290 293 297 298 301 303 304 305 306 306 307 310
227 228 229 229 228 229 233 237 240 239 240 242 246 246 244 256 260 262 265 269 270 272 273 273 275 278 281 283 286 286 286 286 290 292 294 296 296 297 297 299 302 304 305 306
230 232 232 232 232 233 235 234 237 241 241 242 245 247 250 255 260 262 264 268 271 271 271 272 273 275 277 280 282 284 284 286 289 289 289 292 293 293 292 292 296 299 301 303
231 233 235 235 235 235 237 236 237 239 238 240 244 247 251 254 259 263 265 267 268 270 271 270 271 272 275 279 280 281 282 284 286 287 287 289 290 291 289 288 291 294 297 300
234 234 235 235 237 240 238 236 235 236 236 238 241 244 248 253 257 262 264 266 267 266 266 267 269 271 273 275 277 278 280 282 283 284 284 285 287 289 289 288 288 290 293 296
235 236 236 236 238 239 240 239 237 237 237 237 240 243 246 249 253 259 264 265 265 265 265 265 266 269 271 272 273 274 277 279 281 282 281 282 284 286 287 288 289 289 290 293
234 234 235 236 238 239 238 238 237 237 240 241 243 245 248 250 255 258 261 263 264 265 264 265 266 267 268 269 271 272 276 277 277 278 278 279 281 281 283 285 287 288 290 291
235 235 235 236 237 237 239 239 237 238 241 244 245 247 250 253 255 258 261 263 263 263 263 264 265 266 266 268 271 272 273 275 275 276 277 276 277 279 280 283 285 287 288 291
233 233 236 238 238 237 238 239 239 239 242 245 247 249 251 253 255 257 259 261 262 262 264 265 265 265 264 266 268 270 272 273 273 274 275 276 275 278 280 281 282 285 288 291
234 234 236 237 237 238 240 242 243 243 244 246 249 251 252 252 254 256 258 259 261 263 263 264 264 264 264 264 266 268 269 270 271 273 273 274 274 276 279 281 281 283 286 287
232 233 234 236 238 240 242 242 243 246 247 247 248 250 252 253 253 254 256 258 259 260 261 262 263 263 264 265 267 268 269 269 270 272 272 273 274 275 278 279 279 281 283 285
234 235 235 235 238 241 243 245 247 247 246 247 248 250 251 252 253 253 257 258 259 259 261 261 262 262 263 264 266 267 268 269 270 271 272 273 275 276 277 277 277 278 281 284
Height
5921 5924 5926 5929 5932 5934 5936 5937 5938 5939 5938 5938 5938 5937 5936 5934 5932 5930 5929 5928 5926 5925 5923 5921 5920 5917 5915 5913 5910 5908 5906 5905 5903 5901 5900 5899 5898 5897 5895 5894 5893 5892 5891 5890
5920 5922 5925 5927 5930 5932 5934 5936 5937 5938 5938 5938 5938 5938 5937 5935 5933 5932 5930 5928 5927 5926 5924 5922 5921 5919 5917 5914 5912 5910 5908 5906 5905 5903 5902 5900 5899 5898 5897 5895 5894 5893 5892 5891
5917 5922 5923 5925 5928 5930 5932 5935 5936 5937 5937 5937 5939 5938 5937 5935 5934 5932 5930 5928 5927 5926 5925 5923 5922 5920 5918 5916 5914 5911 5909 5908 5906 5905 5903 5902 5900 5899 5898 5897 5896 5894 5893 5892
5914 5917 5920 5923 5925 5928 5929 5931 5933 5934 5935 5936 5938 5937 5935 5934 5933 5932 5931 5929 5928 5926 5925 5924 5922 5921 5919 5917 5915 5913 5911 5909 5907 5906 5904 5903 5901 5900 5899 5897 5896 5895 5894 5893
5911 5914 5916 5919 5923 5924 5926 5928 5930 5931 5933 5934 5935 5936 5935 5933 5932 5932 5931 5929 5927 5927 5925 5924 5923 5921 5919 5918 5916 5914 5913 5911 5909 5907 5906 5904 5902 5901 5899 5898 5897 5896 5894 5893
5907 5909 5912 5916 5918 5920 5923 5925 5927 5928 5930 5931 5933 5934 5933 5931 5931 5931 5929 5929 5928 5927 5926 5924 5923 5921 5920 5918 5916 5915 5913 5912 5910 5908 5906 5905 5903 5901 5900 5898 5897 5896 5895 5893
5902 5905 5908 5910 5913 5916 5919 5923 5924 5926 5927 5928 5931 5932 5931 5929 5929 5928 5928 5927 5927 5926 5925 5923 5922 5921 5920 5918 5917 5915 5913 5912 5910 5908 5906 5905 5903 5902 5900 5899 5897 5896 5895 5893
5898 5901 5904 5906 5909 5912 5915 5919 5922 5924 5926 5927 5927 5928 5928 5927 5927 5926 5926 5925 5925 5924 5923 5922 5921 5920 5919 5918 5916 5914 5913 5911 5910 5908 5906 5904 5903 5902 5900 5899 5897 5896 5895 5893
5894 5898 5900 5902 5905 5909 5912 5915 5919 5921 5922 5924 5926 5926 5925 5924 5924 5923 5923 5923 5922 5922 5921 5920 5919 5918 5917 5916 5915 5913 5912 5911 5909 5908 5906 5905 5903 5902 5900 5899 5897 5896 5894 5893
5888 5892 5895 5897 5900 5903 5907 5911 5914 5916 5918 5920 5922 5922 5921 5920 5920 5920 5920 5920 5919 5919 5918 5918 5916 5916 5915 5915 5913 5912 5911 5910 5908 5907 5906 5904 5903 5901 5899 5898 5897 5895 5894 5893
5882 5886 5889 5892 5894 5898 5902 5905 5908 5911 5913 5916 5918 5919 5917 5916 5915 5916 5916 5916 5916 5916 5915 5915 5914 5913 5912 5912 5911 5911 5909 5908 5907 5906 5904 5903 5902 5900 5899 5897 5896 5895 5894 5892
5875 5879 5883 5887 5890 5893 5897 5900 5903 5906 5908 5910 5913 5916 5912 5912 5912 5912 5912 5912 5912 5912 5912 5911 5911 5910 5909 5909 5908 5908 5907 5906 5905 5904 5903 5901 5900 5899 5898 5896 5895 5894 5893 5891
5868 5873 5877 5882 5887 5887 5889 5893 5897 5900 5903 5905 5908 5912 5908 5908 5907 5907 5907 5908 5908 5908 5907 5907 5907 5907 5906 5905 5905 5904 5904 5903 5902 5901 5900 5899 5898 5897 5896 5895 5894 5892 5891 5889
5861 5865 5870 5876 5880 5882 5883 5887 5891 5894 5897 5900 5902 5905 5904 5903 5903 5903 5902 5903 5903 5903 5903 5903 5903 5902 5901 5901 5901 5900 5900 5899 5899 5898 5897 5896 5895 5895 5894 5893 5892 5890 5889 5887
5852 5857 5862 5867 5872 5876 5878 5880 5884 5887 5891 5894 5897 5898 5899 5897 5897 5897 5897 5897 5898 5898 5898 5898 5898 5898 5897 5896 5896 5896 5896 5895 5895 5894 5894 5893 5892 5891 5891 5890 5889 5888 5886 5885
5843 5849 5854 5858 5863 5867 5871 5875 5877 5880 5884 5887 5889 5891 5892 5891 5890 5890 5891 5891 5892 5892 5892 5893 5893 5893 5892 5892 5892 5892 5891 5891 5890 5890 5890 5889 5889 5888 5887 5886 5885 5884 5883 5882
5836 5841 5845 5850 5855 5858 5862 5867 5870 5873 5876 5880 5882 5884 5885 5884 5882 5883 5884 5884 5885 5886 5886 5887 5887 5887 5887 5887 5887 5885 5884 5885 5886 5886 5885 5885 5884 5883 5883 5882 5882 5881 5880 5879
5828 5832 5837 5842 5847 5849 5857 5861 5864 5866 5869 5872 5873 5875 5876 5877 5876 5876 5877 5878 5879 5879 5879 5880 5881 5881 5881 5882 5881 5881 5881 5880 5880 5881 5880 5880 5879 5879 5878 5878 5877 5877 5876 5874
5820 5824 5829 5833 5837 5841 5848 5851 5855 5857 5860 5863 5865 5867 5868 5869 5869 5869 5870 5871 5871 5872 5873 5873 5874 5874 5875 5876 5876 5875 5875 5875 5875 5875 5875 5875 5874 5874 5873 5873 5872 5872 5871 5870
5811 5815 5821 5825 5829 5833 5840 5843 5845 5849 5851 5853 5855 5858 5860 5861 5862 5863 5863 5863 5864 5865 5866 5866 5867 5868 5869 5869 5870 5869 5869 5869 5869 5869 5869 5869 5869 5869 5868 5868 5867 5866 5865 5864
5803 5807 5811 5815 5819 5824 5830 5832 5836 5841 5842 5844 5846 5849 5851 5853 5855 5856 5855 5855 5857 5858 5859 5859 5860 5861 5862 5862 5862 5863 5863 5863 5863 5863 5863 5863 5863 5863 5862 5862 5861 5861 5860 5859
5795 5799 5803 5807 5811 5817 5820 5823 5826 5828 5831 5834 5837 5839 5841 5844 5845 5846 5847 5847 5849 5850 5850 5851 5852 5853 5854 5855 5855 5856 5856 5857 5857 5857 5857 5857 5857 5857 5856 5856 5855 5855 5854 5853
5786 5792 5795 5799 5804 5807 5811 5813 5815 5818 5822 5825 5827 5830 5832 5834 5836 5838 5838 5839 5841 5842 5843 5843 5844 5845 5846 5847 5848 5848 5849 5850 5850 5850 5850 5850 5851 5850 5850 5849 5849 5848 5847 5846
5778 5782 5786 5789 5793 5797 5800 5803 5806 5809 5812 5816 5818 5820 5822 5824 5827 5828 5830 5831 5833 5834 5835 5836 5837 5837 5838 5840 5840 5841 5841 5842 5842 5843 5843 5843 5843 5843 5843 5842 5841 5841 5841 5840
5768 5772 5775 5780 5784 5787 5791 5793 5796 5800 5803 5806 5808 5810 5812 5814 5817 5819 5820 5822 5824 5825 5827 5828 5829 5830 5831 5832 5833 5833 5834 5834 5835 5835 5835 5835 5835 5835 5835 5834 5834 5834 5833 5833
5760 5763 5766 5770 5773 5777 5780 5784 5787 5790 5793 5796 5799 5801 5803 5805 5808 5809 5811 5812 5814 5816 5817 5819 5820 5821 5822 5823 5825 5826 5826 5827 5827 5827 5827 5827 5827 5827 5827 5826 5826 5825 5825 5824